When you browse on this site, cookies collect data to enhance your experience and personalize the content and advertising you see.
Visit our Privacy Policy to learn more. By continuing to use the site, you agree to this use of cookies and data.
  • In United Kingdom
  • List of Countries
  • For 7 days
  • Water Temperature
  • Weather Map
  • Weather Widgets
  • user-avatar
    Login

    Hourly Weather Babayurt

    Today, 21 August, Wednesday

    Time Temperature Precipitation Wind Pressure Humidity
    00:00 +25°C° 0 mm 5 mps 762 mmHg 59%
    01:00 +25°C° 0 mm 5 mps 762 mmHg 61%
    02:00 +23°C° 0 mm 4 mps 762 mmHg 64%
    03:00 +23°C° 0 mm 4 mps 762 mmHg 67%
    04:00 +23°C° 0 mm 4 mps 762 mmHg 66%
    05:00 +24°C° 0 mm 3 mps 761 mmHg 65%
    06:00 +24°C° 0 mm 3 mps 761 mmHg 64%
    07:00 +28°C° 0 mm 3 mps 761 mmHg 51%
    08:00 +31°C° 0 mm 3 mps 761 mmHg 39%
    09:00 +36°C° 0 mm 4 mps 761 mmHg 26%
    10:00 +38°C° 0 mm 4 mps 761 mmHg 23%
    11:00 +40°C° 0 mm 5 mps 761 mmHg 19%
    12:00 +42°C° 0 mm 6 mps 760 mmHg 16%
    13:00 +43°C° 0 mm 7 mps 760 mmHg 16%
    14:00 +41°C° 0 mm 8 mps 760 mmHg 15%
    15:00 +42°C° 0 mm 9 mps 759 mmHg 15%
    16:00 +39°C° 0 mm 8 mps 759 mmHg 19%
    17:00 +37°C° 0 mm 8 mps 759 mmHg 23%
    18:00 +34°C° 0 mm 8 mps 759 mmHg 27%
    19:00 +30°C° 0 mm 7 mps 759 mmHg 39%
    20:00 +28°C° 0 mm 6 mps 759 mmHg 51%
    21:00 +26°C° 0 mm 5 mps 759 mmHg 63%
    22:00 +26°C° 0 mm 5 mps 759 mmHg 63%
    23:00 +25°C° 0 mm 5 mps 759 mmHg 63%

    Tomorrow, 22 August, Thursday

    Time Temperature Precipitation Wind Pressure Humidity
    00:00 +25°C° 0 mm 5 mps 759 mmHg 64%
    01:00 +25°C° 0 mm 5 mps 759 mmHg 62%
    02:00 +25°C° 0 mm 5 mps 759 mmHg 60%
    03:00 +25°C° 0 mm 5 mps 759 mmHg 58%
    04:00 +25°C° 0 mm 4 mps 759 mmHg 57%
    05:00 +25°C° 0 mm 4 mps 759 mmHg 57%
    06:00 +25°C° 0 mm 3 mps 759 mmHg 57%
    07:00 +29°C° 0 mm 4 mps 758 mmHg 46%
    08:00 +33°C° 0 mm 5 mps 758 mmHg 36%
    09:00 +36°C° 0 mm 6 mps 758 mmHg 26%
    10:00 +39°C° 0 mm 7 mps 758 mmHg 22%
    11:00 +40°C° 0 mm 8 mps 758 mmHg 18%
    12:00 +43°C° 0 mm 10 mps 758 mmHg 14%
    13:00 +43°C° 0 mm 10 mps 758 mmHg 15%
    14:00 +42°C° 0 mm 10 mps 757 mmHg 15%
    15:00 +42°C° 0 mm 10 mps 757 mmHg 16%
    16:00 +39°C° 0 mm 9 mps 757 mmHg 20%
    17:00 +37°C° 0 mm 8 mps 757 mmHg 25%
    18:00 +34°C° 0 mm 7 mps 757 mmHg 30%
    19:00 +32°C° 0 mm 7 mps 758 mmHg 38%
    20:00 +29°C° 0 mm 6 mps 758 mmHg 46%
    21:00 +27°C° 0 mm 6 mps 759 mmHg 55%
    22:00 +27°C° 0 mm 5 mps 759 mmHg 56%
    23:00 +27°C° 0 mm 5 mps 759 mmHg 57%

    Day after tomorrow, 23 August, Friday

    Time Temperature Precipitation Wind Pressure Humidity
    00:00 +27°C° 0 mm 5 mps 759 mmHg 59%
    01:00 +26°C° 0 mm 4 mps 759 mmHg 61%
    02:00 +25°C° 0 mm 3 mps 759 mmHg 63%
    03:00 +24°C° 0 mm 3 mps 759 mmHg 65%
    04:00 +25°C° 0 mm 2 mps 759 mmHg 63%
    05:00 +25°C° 0 mm 2 mps 759 mmHg 61%
    06:00 +25°C° 0 mm 2 mps 759 mmHg 59%
    07:00 +28°C° 0 mm 2 mps 759 mmHg 50%
    08:00 +31°C° 0 mm 2 mps 759 mmHg 41%
    09:00 +34°C° 0 mm 2 mps 759 mmHg 32%
    10:00 +37°C° 0 mm 3 mps 759 mmHg 26%
    11:00 +41°C° 0 mm 4 mps 758 mmHg 20%
    12:00 +44°C° 0 mm 6 mps 758 mmHg 14%
    13:00 +42°C° 0 mm 6 mps 758 mmHg 15%
    14:00 +43°C° 0 mm 7 mps 758 mmHg 17%
    15:00 +41°C° 0 mm 8 mps 758 mmHg 18%
    16:00 +39°C° 0 mm 7 mps 758 mmHg 22%
    17:00 +36°C° 0 mm 7 mps 758 mmHg 26%
    18:00 +34°C° 0 mm 6 mps 758 mmHg 30%
    19:00 +32°C° 0.1 mm 5 mps 759 mmHg 41%
    20:00 +29°C° 0.1 mm 4 mps 759 mmHg 51%
    21:00 +26°C° 0.1 mm 4 mps 759 mmHg 62%
    22:00 +26°C° 0.1 mm 3 mps 759 mmHg 64%
    23:00 +26°C° 0.1 mm 3 mps 759 mmHg 66%

    24 August, Saturday

    Time Temperature Precipitation Wind Pressure Humidity
    00:00 +25°C° 0.1 mm 2 mps 759 mmHg 68%
    01:00 +25°C° 0 mm 2 mps 759 mmHg 69%
    02:00 +25°C° 0 mm 2 mps 759 mmHg 69%
    03:00 +24°C° 0 mm 2 mps 759 mmHg 70%
    04:00 +25°C° 0 mm 2 mps 759 mmHg 68%
    05:00 +25°C° 0 mm 1 mps 759 mmHg 66%
    06:00 +25°C° 0 mm 1 mps 759 mmHg 64%
    07:00 +28°C° 0 mm 1 mps 759 mmHg 55%
    08:00 +30°C° 0 mm 1 mps 759 mmHg 47%
    09:00 +32°C° 0 mm 1 mps 759 mmHg 38%
    10:00 +35°C° 0 mm 2 mps 759 mmHg 33%
    11:00 +38°C° 0 mm 2 mps 759 mmHg 27%
    12:00 +40°C° 0 mm 2 mps 759 mmHg 21%
    13:00 +40°C° 0 mm 3 mps 759 mmHg 21%
    14:00 +40°C° 0 mm 3 mps 759 mmHg 20%
    15:00 +42°C° 0 mm 4 mps 759 mmHg 20%
    16:00 +40°C° 0 mm 5 mps 759 mmHg 25%
    17:00 +36°C° 0 mm 5 mps 759 mmHg 30%
    18:00 +34°C° 0 mm 6 mps 760 mmHg 36%
    19:00 +32°C° 0.3 mm 5 mps 760 mmHg 44%
    20:00 +29°C° 0.3 mm 4 mps 760 mmHg 52%
    21:00 +27°C° 0.3 mm 3 mps 761 mmHg 61%
    22:00 +26°C° 0 mm 2 mps 761 mmHg 64%
    23:00 +25°C° 0 mm 2 mps 761 mmHg 67%

    25 August, Sunday

    Time Temperature Precipitation Wind Pressure Humidity
    00:00 +24°C° 0 mm 2 mps 761 mmHg 71%
    01:00 +24°C° 0 mm 2 mps 761 mmHg 72%
    02:00 +24°C° 0 mm 1 mps 761 mmHg 73%
    03:00 +23°C° 0 mm 1 mps 761 mmHg 74%
    04:00 +24°C° 0 mm 1 mps 761 mmHg 71%
    05:00 +25°C° 0 mm 1 mps 761 mmHg 69%
    06:00 +25°C° 0 mm 1 mps 761 mmHg 67%
    07:00 +27°C° 0 mm 1 mps 761 mmHg 59%
    08:00 +29°C° 0 mm 1 mps 761 mmHg 51%
    09:00 +31°C° 0 mm 1 mps 761 mmHg 43%
    10:00 +34°C° 0 mm 2 mps 761 mmHg 36%
    11:00 +35°C° 0 mm 3 mps 761 mmHg 30%
    12:00 +37°C° 0 mm 3 mps 761 mmHg 23%
    13:00 +37°C° 0 mm 4 mps 760 mmHg 20%
    14:00 +37°C° 0 mm 5 mps 760 mmHg 18%
    15:00 +39°C° 0 mm 6 mps 760 mmHg 15%
    16:00 +36°C° 0 mm 6 mps 760 mmHg 18%
    17:00 +35°C° 0 mm 6 mps 760 mmHg 21%
    18:00 +33°C° 0 mm 6 mps 760 mmHg 24%
    19:00 +30°C° 0 mm 5 mps 760 mmHg 34%
    20:00 +27°C° 0 mm 4 mps 760 mmHg 44%
    21:00 +25°C° 0 mm 4 mps 760 mmHg 54%
    22:00 +25°C° 0 mm 3 mps 760 mmHg 55%
    23:00 +24°C° 0 mm 2 mps 761 mmHg 56%

    26 August, Monday

    Time Temperature Precipitation Wind Pressure Humidity
    00:00 +24°C° 0 mm 2 mps 761 mmHg 57%
    01:00 +24°C° 0 mm 2 mps 760 mmHg 58%
    02:00 +24°C° 0 mm 2 mps 760 mmHg 59%
    03:00 +24°C° 0 mm 1 mps 760 mmHg 60%
    04:00 +23°C° 0.3 mm 2 mps 760 mmHg 63%
    05:00 +23°C° 0.3 mm 2 mps 761 mmHg 66%
    06:00 +23°C° 0.3 mm 2 mps 761 mmHg 69%
    07:00 +25°C° 0 mm 2 mps 761 mmHg 58%
    08:00 +28°C° 0 mm 2 mps 761 mmHg 47%
    09:00 +31°C° 0 mm 3 mps 761 mmHg 37%
    10:00 +34°C° 0 mm 3 mps 761 mmHg 31%
    11:00 +36°C° 0 mm 2 mps 761 mmHg 25%
    12:00 +38°C° 0 mm 2 mps 761 mmHg 19%
    13:00 +38°C° 0 mm 3 mps 761 mmHg 19%
    14:00 +38°C° 0 mm 4 mps 761 mmHg 19%
    15:00 +39°C° 0 mm 5 mps 761 mmHg 19%
    16:00 +36°C° 0 mm 5 mps 762 mmHg 20%
    17:00 +35°C° 0 mm 4 mps 762 mmHg 22%
    18:00 +33°C° 0 mm 4 mps 762 mmHg 23%
    19:00 +29°C° 0 mm 3 mps 763 mmHg 34%
    20:00 +27°C° 0 mm 3 mps 763 mmHg 46%
    21:00 +24°C° 0 mm 2 mps 764 mmHg 57%
    22:00 +23°C° 0 mm 2 mps 764 mmHg 63%
    23:00 +23°C° 0 mm 2 mps 764 mmHg 68%
    Show more